Powrót do katalogu

STARLINK-6056

AktywnyŁącznośćVLEO
NORAD 56813·PAYLOAD·🇺🇸 United States

Wystrzelony May 31, 2023 z Vandenberg Space Force Base

Loading…

Następne Przeloty (najbliższe 24 godziny)

TLE

ŚwieżeSource: CelesTrak SupGP

Epoka: Sep 14, 2026, 21:37 UTC

1 56813C 23078AY  26257.90118056  .00019838  00000+0  16622-2 0  2579
2 56813  70.0014 227.2074 0003450 265.8496 202.1529 14.98326149    12

Śledź STARLINK-6056 w czasie rzeczywistym z AllMySat

Download on the App Store